| time (UTC) | temp F | wind direction | speed knots | gust knots | rain 1hr in | rain 24hr in | rain mn in | humidity % | barometer mb |
| 20260510184624 | 75 | 218 | 1.7 | 3.5 | 0.00 | 0.00 | 0.00 | 46 | 1015.4 |
| 20260510184119 | 75 | 190 | 2.6 | 2.6 | 0.00 | 0.00 | 0.00 | 46 | 1015.3 |
| 20260510183614 | 73 | 200 | 0.9 | 6.1 | 0.00 | 0.00 | 0.00 | 47 | 1015.4 |
| 20260510183110 | 74 | 266 | 3.5 | 5.2 | 0.00 | 0.00 | 0.00 | 45 | 1015.4 |
| 20260510182607 | 75 | 296 | 2.6 | 5.2 | 0.00 | 0.00 | 0.00 | 45 | 1015.4 |
| 20260510182102 | 74 | 258 | 1.7 | 5.2 | 0.00 | 0.00 | 0.00 | 46 | 1015.3 |
| 20260510181600 | 75 | 214 | 0.9 | 1.7 | 0.00 | 0.00 | 0.00 | 44 | 1015.4 |
| 20260510181056 | 75 | 183 | 1.7 | 2.6 | 0.00 | 0.00 | 0.00 | 44 | 1015.6 |
| 20260510180553 | 75 | 199 | 4.3 | 7.0 | 0.00 | 0.00 | 0.00 | 44 | 1015.6 |
| 20260510180050 | 75 | 243 | 3.5 | 7.8 | 0.00 | 0.00 | 0.00 | 47 | 1015.8 |
| 20260510175544 | 73 | 306 | 3.5 | 5.2 | 0.00 | 0.00 | 0.00 | 48 | 1015.7 |
| 20260510175041 | 74 | 1 | 1.7 | 3.5 | 0.00 | 0.00 | 0.00 | 45 | 1015.7 |
| 20260510174539 | 73 | 221 | 0.0 | 0.9 | 0.00 | 0.00 | 0.00 | 46 | 1015.8 |
| 20260510174036 | 73 | 205 | 0.0 | 2.6 | 0.00 | 0.00 | 0.00 | 45 | 1016.0 |
| 20260510173531 | 73 | 202 | 1.7 | 3.5 | 0.00 | 0.00 | 0.00 | 44 | 1016.0 |
| 20260510173028 | 73 | 160 | 1.7 | 6.1 | 0.00 | 0.00 | 0.00 | 45 | 1015.9 |
| 20260510172524 | 75 | 144 | 1.7 | 5.2 | 0.00 | 0.00 | 0.00 | 44 | 1016.1 |
| 20260510172020 | 74 | 215 | 2.6 | 6.1 | 0.00 | 0.00 | 0.00 | 46 | 1016.2 |
| 20260510171517 | 74 | 275 | 4.3 | 6.1 | 0.00 | 0.00 | 0.00 | 44 | 1015.9 |
| 20260510171014 | 73 | 307 | 1.7 | 3.5 | 0.00 | 0.00 | 0.00 | 44 | 1016.0 |
| 20260510170511 | 74 | 281 | 2.6 | 7.8 | 0.00 | 0.00 | 0.00 | 46 | 1016.2 |
| 20260510170007 | 73 | 229 | 0.9 | 2.6 | 0.00 | 0.00 | 0.00 | 47 | 1016.1 |
| 20260510165503 | 73 | 152 | 0.9 | 5.2 | 0.00 | 0.00 | 0.00 | 45 | 1016.2 |
| 20260510164959 | 73 | 264 | 1.7 | 7.0 | 0.00 | 0.00 | 0.00 | 45 | 1016.1 |
| 20260510164451 | 73 | 234 | 1.7 | 2.6 | 0.00 | 0.00 | 0.00 | 45 | 1016.3 |
| 20260510163946 | 73 | 157 | 1.7 | 6.1 | 0.00 | 0.00 | 0.00 | 45 | 1016.3 |
| 20260510163442 | 73 | 262 | 1.7 | 5.2 | 0.00 | 0.00 | 0.00 | 45 | 1016.2 |
| 20260510162937 | 72 | 263 | 3.5 | 6.1 | 0.00 | 0.00 | 0.00 | 48 | 1016.1 |
| 20260510162434 | 72 | 263 | 5.2 | 7.0 | 0.00 | 0.00 | 0.00 | 46 | 1016.2 |
| 20260510161930 | 72 | 303 | 4.3 | 7.0 | 0.00 | 0.00 | 0.00 | 47 | 1016.4 |
| 20260510161426 | 72 | 208 | 1.7 | 3.5 | 0.00 | 0.00 | 0.00 | 48 | 1016.5 |
| 20260510160924 | 71 | 229 | 0.9 | 6.1 | 0.00 | 0.00 | 0.00 | 51 | 1016.5 |
| 20260510160421 | 72 | 225 | 1.7 | 3.5 | 0.00 | 0.00 | 0.00 | 50 | 1016.4 |
| 20260510155919 | 71 | 265 | 4.3 | 7.0 | 0.00 | 0.00 | 0.00 | 47 | 1016.5 |
| 20260510155416 | 71 | 217 | 2.6 | 3.5 | 0.00 | 0.00 | 0.00 | 48 | 1016.4 |
| 20260510154913 | 70 | 348 | 3.5 | 5.2 | 0.00 | 0.00 | 0.00 | 48 | 1016.2 |
| 20260510154409 | 71 | 237 | 1.7 | 7.0 | 0.00 | 0.00 | 0.00 | 47 | 1016.3 |
| 20260510153902 | 70 | 263 | 1.7 | 11.3 | 0.00 | 0.00 | 0.00 | 49 | 1016.4 |
| 20260510153359 | 70 | 250 | 3.5 | 7.8 | 0.00 | 0.00 | 0.00 | 51 | 1016.1 |
| 20260510152856 | 70 | 244 | 2.6 | 6.1 | 0.00 | 0.00 | 0.00 | 53 | 1016.5 |
| 20260510152353 | 70 | 273 | 5.2 | 7.0 | 0.00 | 0.00 | 0.00 | 53 | 1016.5 |
| 20260510151849 | 69 | 201 | 2.6 | 3.5 | 0.00 | 0.00 | 0.00 | 56 | 1016.4 |
| 20260510151347 | 68 | 257 | 3.5 | 7.0 | 0.00 | 0.00 | 0.00 | 58 | 1016.3 |
| 20260510150843 | 68 | 189 | 7.0 | 7.8 | 0.00 | 0.00 | 0.00 | 57 | 1016.3 |
| 20260510150339 | 68 | 258 | 5.2 | 7.0 | 0.00 | 0.00 | 0.00 | 57 | 1016.5 |
| 20260510145835 | 68 | 234 | 2.6 | 7.0 | 0.00 | 0.00 | 0.00 | 59 | 1016.2 |
| 20260510145331 | 67 | 194 | 1.7 | 3.5 | 0.00 | 0.00 | 0.00 | 59 | 1016.4 |
| 20260510144828 | 67 | 218 | 1.7 | 2.6 | 0.00 | 0.00 | 0.00 | 61 | 1016.3 |
| 20260510144325 | 67 | 202 | 1.7 | 2.6 | 0.00 | 0.00 | 0.00 | 62 | 1016.3 |
| 20260510143825 | 66 | 186 | 2.6 | 2.6 | 0.00 | 0.00 | 0.00 | 62 | 1016.4 |
| 20260510143321 | 66 | 225 | 3.5 | 7.8 | 0.00 | 0.00 | 0.00 | 63 | 1016.3 |
| 20260510142818 | 66 | 229 | 1.7 | 5.2 | 0.00 | 0.00 | 0.00 | 64 | 1016.4 |
| 20260510142315 | 66 | 178 | 0.9 | 3.5 | 0.00 | 0.00 | 0.00 | 65 | 1016.4 |
| 20260510141812 | 65 | 241 | 1.7 | 5.2 | 0.00 | 0.00 | 0.00 | 65 | 1016.3 |
| 20260510141309 | 64 | 218 | 0.9 | 6.1 | 0.00 | 0.00 | 0.00 | 67 | 1016.4 |
| 20260510140807 | 64 | 225 | 1.7 | 7.8 | 0.00 | 0.00 | 0.00 | 69 | 1016.2 |
| 20260510140302 | 64 | 241 | 6.1 | 8.7 | 0.00 | 0.00 | 0.00 | 69 | 1016.3 |
| 20260510135801 | 64 | 216 | 2.6 | 3.5 | 0.00 | 0.00 | 0.00 | 69 | 1016.4 |
| 20260510135257 | 63 | 204 | 1.7 | 2.6 | 0.00 | 0.00 | 0.00 | 69 | 1016.5 |
| 20260510134755 | 63 | 232 | 2.6 | 3.5 | 0.00 | 0.00 | 0.00 | 71 | 1016.5 |
| 20260510134252 | 63 | 246 | 0.9 | 5.2 | 0.00 | 0.00 | 0.00 | 73 | 1016.4 |
| 20260510133743 | 62 | 248 | 1.7 | 3.5 | 0.00 | 0.00 | 0.00 | 72 | 1016.3 |
| 20260510133238 | 61 | 253 | 1.7 | 3.5 | 0.00 | 0.00 | 0.00 | 74 | 1016.4 |
| 20260510132734 | 61 | 238 | 2.6 | 3.5 | 0.00 | 0.00 | 0.00 | 77 | 1016.6 |
| 20260510132232 | 60 | 175 | 1.7 | 6.1 | 0.00 | 0.00 | 0.00 | 79 | 1016.6 |
| 20260510131729 | 60 | 255 | 1.7 | 7.8 | 0.00 | 0.00 | 0.00 | 78 | 1016.6 |
| 20260510131227 | 59 | 249 | 2.6 | 3.5 | 0.00 | 0.00 | 0.00 | 79 | 1016.4 |
| 20260510130723 | 59 | 240 | 2.6 | 7.0 | 0.00 | 0.00 | 0.00 | 82 | 1016.6 |
| 20260510130220 | 59 | 199 | 0.9 | 3.5 | 0.00 | 0.00 | 0.00 | 82 | 1016.4 |
| 20260510125717 | 58 | 216 | 2.6 | 3.5 | 0.00 | 0.00 | 0.00 | 84 | 1016.7 |
| 20260510125213 | 57 | 234 | 0.9 | 5.2 | 0.00 | 0.00 | 0.00 | 85 | 1016.4 |
| 20260510124709 | 57 | 267 | 2.6 | 6.1 | 0.00 | 0.00 | 0.00 | 86 | 1016.5 |
| 20260510124207 | 56 | 266 | 4.3 | 7.8 | 0.00 | 0.00 | 0.00 | 86 | 1016.4 |
| 20260510123702 | 56 | 229 | 0.9 | 7.0 | 0.00 | 0.00 | 0.00 | 87 | 1016.6 |
| 20260510123158 | 55 | 265 | 2.6 | 7.0 | 0.00 | 0.00 | 0.00 | 87 | 1016.5 |
| 20260510122654 | 54 | 261 | 1.7 | 2.6 | 0.00 | 0.00 | 0.00 | 89 | 1016.4 |
| 20260510122150 | 54 | 245 | 0.9 | 1.7 | 0.00 | 0.00 | 0.00 | 89 | 1016.4 |
| 20260510121647 | 53 | 216 | 0.0 | 1.7 | 0.00 | 0.00 | 0.00 | 90 | 1016.2 |
| 20260510121144 | 52 | 203 | 0.9 | 0.9 | 0.00 | 0.00 | 0.00 | 90 | 1016.2 |
| 20260510120642 | 51 | 213 | 0.9 | 0.9 | 0.00 | 0.00 | 0.00 | 90 | 1016.1 |
| 20260510120137 | 51 | 224 | 0.9 | 0.9 | 0.00 | 0.00 | 0.00 | 91 | 1016.0 |
| 20260510115633 | 51 | 234 | 0.0 | 0.9 | 0.00 | 0.00 | 0.00 | 91 | 1015.9 |
| 20260510115132 | 51 | 210 | 0.0 | 0.9 | 0.00 | 0.00 | 0.00 | 91 | 1016.0 |
| 20260510114627 | 51 | 216 | 0.9 | 0.9 | 0.00 | 0.00 | 0.00 | 92 | 1015.9 |
| 20260510114124 | 51 | 205 | 0.9 | 0.9 | 0.00 | 0.00 | 0.00 | 92 | 1015.9 |
| 20260510113619 | 50 | 223 | 0.9 | 0.9 | 0.00 | 0.00 | 0.00 | 93 | 1015.8 |
| 20260510113116 | 50 | 223 | 0.0 | 0.9 | 0.00 | 0.00 | 0.00 | 93 | 1015.8 |
| 20260510112613 | 50 | 221 | 0.0 | 0.0 | 0.00 | 0.00 | 0.00 | 94 | 1015.7 |
| 20260510112109 | 49 | 254 | 1.7 | 3.5 | 0.00 | 0.00 | 0.00 | 94 | 1015.6 |
| 20260510111606 | 49 | 225 | 0.9 | 0.9 | 0.00 | 0.00 | 0.00 | 94 | 1015.4 |
| 20260510111102 | 49 | 238 | 0.9 | 1.7 | 0.00 | 0.00 | 0.00 | 94 | 1015.4 |
| 20260510110558 | 49 | 246 | 0.0 | 1.7 | 0.00 | 0.00 | 0.00 | 94 | 1015.2 |
| 20260510110055 | 48 | 255 | 0.9 | 1.7 | 0.00 | 0.00 | 0.00 | 95 | 1015.1 |
| 20260510105550 | 48 | 245 | 0.0 | 0.9 | 0.00 | 0.00 | 0.00 | 95 | 1015.2 |
| 20260510105045 | 48 | 260 | 0.9 | 0.9 | 0.00 | 0.00 | 0.00 | 95 | 1015.0 |
| 20260510104542 | 47 | 247 | 0.0 | 0.0 | 0.00 | 0.00 | 0.00 | 95 | 1014.8 |
| 20260510104038 | 46 | 249 | 0.0 | 0.0 | 0.00 | 0.00 | 0.00 | 94 | 1014.7 |
| 20260510103536 | 46 | 249 | 0.0 | 0.0 | 0.00 | 0.00 | 0.00 | 94 | 1014.6 |
| 20260510103032 | 46 | 249 | 0.0 | 0.0 | 0.00 | 0.00 | 0.00 | 94 | 1014.6 |
| 20260510102527 | 46 | 249 | 0.0 | 0.0 | 0.00 | 0.00 | 0.00 | 94 | 1014.6 |
| 20260510102024 | 46 | 249 | 0.0 | 0.0 | 0.00 | 0.00 | 0.00 | 94 | 1014.5 |
| 20260510101521 | 47 | 249 | 0.0 | 0.0 | 0.00 | 0.00 | 0.00 | 94 | 1014.6 |
| 20260510101020 | 47 | 249 | 0.0 | 0.0 | 0.00 | 0.00 | 0.00 | 94 | 1014.5 |
| 20260510100516 | 48 | 249 | 0.0 | 0.0 | 0.00 | 0.00 | 0.00 | 94 | 1014.5 |
| 20260510100013 | 48 | 250 | 0.0 | 0.9 | 0.00 | 0.00 | 0.00 | 94 | 1014.4 |
| 20260510095508 | 48 | 255 | 0.9 | 0.9 | 0.00 | 0.00 | 0.00 | 94 | 1014.4 |
| 20260510095008 | 48 | 244 | 0.0 | 0.9 | 0.00 | 0.00 | 0.00 | 94 | 1014.3 |
| 20260510094502 | 48 | 239 | 0.0 | 0.9 | 0.00 | 0.00 | 0.00 | 94 | 1014.4 |
| 20260510093958 | 48 | 233 | 0.0 | 0.0 | 0.00 | 0.00 | 0.00 | 94 | 1014.3 |
| 20260510093454 | 48 | 233 | 0.0 | 0.0 | 0.00 | 0.00 | 0.00 | 94 | 1014.2 |
| 20260510092951 | 48 | 233 | 0.0 | 0.0 | 0.00 | 0.00 | 0.00 | 94 | 1014.3 |
| 20260510092448 | 48 | 243 | 0.0 | 0.9 | 0.00 | 0.00 | 0.00 | 94 | 1014.1 |
| 20260510091948 | 48 | 257 | 0.0 | 1.7 | 0.00 | 0.00 | 0.00 | 95 | 1014.3 |
| 20260510091445 | 48 | 275 | 0.9 | 0.9 | 0.00 | 0.00 | 0.00 | 95 | 1013.8 |
| 20260510090942 | 47 | 266 | 0.9 | 1.7 | 0.00 | 0.00 | 0.00 | 95 | 1013.9 |
| 20260510090438 | 47 | 264 | 0.9 | 1.7 | 0.00 | 0.00 | 0.00 | 95 | 1013.9 |
| 20260510085928 | 48 | 277 | 0.9 | 0.9 | 0.00 | 0.00 | 0.00 | 95 | 1014.2 |
| 20260510085423 | 46 | 248 | 0.9 | 0.9 | 0.00 | 0.00 | 0.00 | 95 | 1013.9 |
| 20260510084918 | 46 | 236 | 0.0 | 0.0 | 0.00 | 0.00 | 0.00 | 95 | 1013.7 |
| 20260510084417 | 46 | 237 | 0.0 | 0.0 | 0.00 | 0.00 | 0.00 | 95 | 1013.6 |
| 20260510083913 | 46 | 237 | 0.0 | 0.0 | 0.00 | 0.00 | 0.00 | 95 | 1013.7 |
| 20260510083410 | 46 | 237 | 0.0 | 0.0 | 0.00 | 0.00 | 0.00 | 95 | 1013.6 |
| 20260510082905 | 47 | 237 | 0.0 | 0.0 | 0.00 | 0.00 | 0.00 | 95 | 1013.6 |
| 20260510082403 | 47 | 243 | 0.0 | 0.0 | 0.00 | 0.00 | 0.00 | 95 | 1013.7 |
| 20260510081901 | 47 | 253 | 0.0 | 0.9 | 0.00 | 0.00 | 0.00 | 95 | 1013.4 |
| 20260510081357 | 47 | 261 | 0.0 | 0.9 | 0.00 | 0.00 | 0.00 | 95 | 1013.7 |
| 20260510080854 | 47 | 254 | 0.0 | 0.9 | 0.00 | 0.00 | 0.00 | 95 | 1013.6 |
| 20260510080348 | 46 | 259 | 0.0 | 0.9 | 0.00 | 0.00 | 0.00 | 95 | 1013.5 |
| 20260510075845 | 46 | 265 | 0.0 | 0.9 | 0.00 | 0.00 | 0.00 | 95 | 1013.6 |
| 20260510075343 | 46 | 250 | 0.0 | 0.9 | 0.00 | 0.00 | 0.00 | 94 | 1013.7 |
| 20260510074839 | 45 | 216 | 0.0 | 0.9 | 0.00 | 0.00 | 0.00 | 94 | 1013.5 |
| 20260510074337 | 45 | 208 | 0.0 | 0.9 | 0.00 | 0.00 | 0.00 | 94 | 1013.6 |
| 20260510073833 | 44 | 206 | 0.0 | 0.0 | 0.00 | 0.00 | 0.00 | 94 | 1013.5 |
| 20260510073329 | 45 | 205 | 0.0 | 0.0 | 0.00 | 0.00 | 0.00 | 94 | 1013.5 |
| 20260510072825 | 45 | 205 | 0.0 | 0.0 | 0.00 | 0.00 | 0.00 | 94 | 1013.4 |
| 20260510072322 | 45 | 205 | 0.0 | 0.0 | 0.00 | 0.00 | 0.00 | 94 | 1013.2 |
| 20260510071818 | 45 | 205 | 0.0 | 0.0 | 0.00 | 0.00 | 0.00 | 94 | 1013.4 |
| 20260510071309 | 45 | 205 | 0.0 | 0.0 | 0.00 | 0.00 | 0.00 | 94 | 1013.4 |
| 20260510070809 | 46 | 206 | 0.0 | 0.0 | 0.00 | 0.00 | 0.00 | 94 | 1013.3 |
| 20260510070304 | 46 | 205 | 0.0 | 0.0 | 0.00 | 0.00 | 0.00 | 94 | 1013.5 |
| 20260510065804 | 46 | 205 | 0.0 | 0.0 | 0.00 | 0.00 | 0.00 | 94 | 1013.4 |
| 20260510065301 | 46 | 205 | 0.0 | 0.0 | 0.00 | 0.00 | 0.00 | 93 | 1013.2 |
| 20260510064758 | 46 | 205 | 0.0 | 0.0 | 0.00 | 0.00 | 0.00 | 93 | 1013.3 |
| 20260510064256 | 47 | 205 | 0.0 | 0.0 | 0.00 | 0.00 | 0.00 | 93 | 1013.2 |
| 20260510063751 | 47 | 205 | 0.0 | 0.0 | 0.00 | 0.00 | 0.00 | 93 | 1013.1 |
| 20260510063248 | 47 | 205 | 0.0 | 0.0 | 0.00 | 0.00 | 0.00 | 93 | 1013.3 |
| 20260510062744 | 47 | 205 | 0.0 | 0.0 | 0.00 | 0.00 | 0.00 | 93 | 1013.3 |
| 20260510062240 | 47 | 205 | 0.0 | 0.0 | 0.00 | 0.00 | 0.00 | 93 | 1013.3 |
| 20260510061736 | 47 | 205 | 0.0 | 0.0 | 0.00 | 0.00 | 0.00 | 93 | 1013.1 |
| 20260510061233 | 48 | 205 | 0.0 | 0.0 | 0.00 | 0.00 | 0.00 | 93 | 1013.3 |
| 20260510060729 | 48 | 205 | 0.0 | 0.0 | 0.00 | 0.00 | 0.00 | 93 | 1013.6 |
| 20260510060226 | 48 | 205 | 0.0 | 0.9 | 0.00 | 0.00 | 0.00 | 93 | 1013.5 |
| 20260510055723 | 48 | 205 | 0.0 | 0.0 | 0.00 | 0.00 | 0.00 | 92 | 1013.5 |
| 20260510055221 | 49 | 205 | 0.0 | 0.0 | 0.00 | 0.00 | 0.00 | 92 | 1013.6 |
| 20260510054721 | 48 | 206 | 0.0 | 0.0 | 0.00 | 0.00 | 0.00 | 92 | 1013.3 |
| 20260510054218 | 49 | 206 | 0.0 | 0.0 | 0.00 | 0.00 | 0.00 | 92 | 1013.5 |
| 20260510053717 | 49 | 206 | 0.0 | 0.0 | 0.00 | 0.00 | 0.00 | 92 | 1013.4 |
| 20260510053214 | 49 | 206 | 0.0 | 0.0 | 0.00 | 0.00 | 0.00 | 91 | 1013.4 |
| 20260510052709 | 49 | 205 | 0.0 | 0.9 | 0.00 | 0.00 | 0.00 | 91 | 1013.3 |
| 20260510052206 | 49 | 203 | 0.0 | 0.0 | 0.00 | 0.00 | 0.00 | 91 | 1013.4 |
| 20260510051701 | 49 | 203 | 0.0 | 0.0 | 0.00 | 0.00 | 0.00 | 91 | 1013.5 |
| 20260510051158 | 50 | 212 | 0.0 | 0.9 | 0.00 | 0.00 | 0.00 | 91 | 1013.2 |
| 20260510050656 | 50 | 212 | 0.0 | 0.0 | 0.00 | 0.00 | 0.00 | 90 | 1013.1 |
| 20260510050153 | 50 | 212 | 0.0 | 0.0 | 0.00 | 0.00 | 0.00 | 90 | 1013.1 |
| 20260510045649 | 50 | 212 | 0.0 | 0.0 | 0.00 | 0.00 | 0.00 | 90 | 1013.2 |
| 20260510045146 | 51 | 212 | 0.0 | 0.0 | 0.00 | 0.00 | 0.00 | 90 | 1013.3 |
| 20260510044642 | 51 | 212 | 0.0 | 0.0 | 0.00 | 0.00 | 0.00 | 89 | 1013.3 |
| 20260510044140 | 51 | 207 | 0.0 | 0.0 | 0.00 | 0.00 | 0.00 | 89 | 1013.3 |
| 20260510043635 | 51 | 206 | 0.0 | 0.0 | 0.00 | 0.00 | 0.00 | 89 | 1013.3 |
| 20260510043132 | 51 | 205 | 0.0 | 0.0 | 0.00 | 0.00 | 0.00 | 88 | 1013.4 |
| 20260510042630 | 51 | 204 | 0.0 | 0.0 | 0.00 | 0.00 | 0.00 | 87 | 1013.3 |
| 20260510042125 | 52 | 204 | 0.0 | 0.0 | 0.00 | 0.00 | 0.00 | 86 | 1013.2 |
| 20260510041623 | 52 | 204 | 0.0 | 0.0 | 0.00 | 0.00 | 0.00 | 85 | 1013.1 |
| 20260510041120 | 53 | 204 | 0.0 | 0.9 | 0.00 | 0.00 | 0.00 | 84 | 1013.0 |
| 20260510040617 | 54 | 204 | 0.0 | 0.9 | 0.00 | 0.00 | 0.00 | 83 | 1013.1 |
| 20260510040113 | 54 | 244 | 0.0 | 0.9 | 0.00 | 0.00 | 0.00 | 83 | 1013.0 |
| 20260510035609 | 54 | 252 | 0.0 | 0.9 | 0.00 | 0.00 | 0.00 | 84 | 1013.3 |
| 20260510035109 | 53 | 259 | 0.9 | 0.9 | 0.00 | 0.00 | 0.00 | 84 | 1013.1 |
| 20260510034607 | 53 | 259 | 0.9 | 0.9 | 0.00 | 0.00 | 0.00 | 84 | 1013.1 |
| 20260510034104 | 53 | 235 | 0.0 | 0.0 | 0.00 | 0.00 | 0.00 | 84 | 1013.3 |
| 20260510033600 | 53 | 237 | 0.0 | 0.0 | 0.00 | 0.00 | 0.00 | 84 | 1012.9 |
| 20260510033058 | 54 | 252 | 0.0 | 0.9 | 0.00 | 0.00 | 0.00 | 84 | 1013.1 |
| 20260510032554 | 54 | 276 | 0.9 | 0.9 | 0.00 | 0.00 | 0.00 | 83 | 1013.0 |
| 20260510032050 | 54 | 241 | 0.0 | 0.0 | 0.00 | 0.00 | 0.00 | 83 | 1013.1 |
| 20260510031550 | 54 | 241 | 0.0 | 0.0 | 0.00 | 0.00 | 0.00 | 82 | 1012.9 |
| 20260510031046 | 54 | 241 | 0.0 | 0.0 | 0.00 | 0.00 | 0.00 | 81 | 1012.8 |
| 20260510030541 | 55 | 241 | 0.0 | 0.0 | 0.00 | 0.00 | 0.00 | 80 | 1012.8 |
| 20260510030039 | 55 | 241 | 0.0 | 0.0 | 0.00 | 0.00 | 0.00 | 80 | 1012.7 |
| 20260510025536 | 55 | 241 | 0.0 | 0.0 | 0.00 | 0.00 | 0.00 | 79 | 1012.8 |
| 20260510025034 | 55 | 241 | 0.0 | 0.9 | 0.00 | 0.00 | 0.00 | 79 | 1012.6 |
| 20260510024530 | 56 | 241 | 0.0 | 0.0 | 0.00 | 0.00 | 0.00 | 78 | 1012.7 |
| 20260510024026 | 56 | 241 | 0.0 | 0.0 | 0.00 | 0.00 | 0.00 | 77 | 1012.7 |
| 20260510023522 | 56 | 251 | 0.0 | 0.9 | 0.00 | 0.00 | 0.00 | 77 | 1012.7 |
| 20260510023020 | 56 | 243 | 0.0 | 0.0 | 0.00 | 0.00 | 0.00 | 78 | 1012.7 |
| 20260510022519 | 57 | 242 | 0.0 | 0.0 | 0.00 | 0.00 | 0.00 | 77 | 1012.6 |
| 20260510022014 | 57 | 244 | 0.9 | 0.9 | 0.00 | 0.00 | 0.00 | 77 | 1012.7 |
| 20260510021511 | 57 | 259 | 0.9 | 1.7 | 0.00 | 0.00 | 0.00 | 77 | 1012.7 |
| 20260510021008 | 57 | 253 | 0.9 | 1.7 | 0.00 | 0.00 | 0.00 | 77 | 1012.4 |
| 20260510020502 | 57 | 243 | 0.0 | 0.9 | 0.00 | 0.00 | 0.00 | 76 | 1012.4 |
| 20260510015958 | 58 | 223 | 0.0 | 0.0 | 0.00 | 0.00 | 0.00 | 75 | 1012.4 |
| 20260510015454 | 59 | 194 | 0.0 | 0.9 | 0.00 | 0.00 | 0.00 | 72 | 1012.3 |
| 20260510014949 | 61 | 232 | 0.0 | 1.7 | 0.00 | 0.00 | 0.00 | 64 | 1012.0 |
| 20260510014447 | 61 | 263 | 0.9 | 2.6 | 0.00 | 0.00 | 0.00 | 64 | 1011.9 |
| 20260510013944 | 60 | 263 | 1.7 | 1.7 | 0.00 | 0.00 | 0.00 | 67 | 1012.0 |
| 20260510013438 | 59 | 251 | 0.9 | 0.9 | 0.00 | 0.00 | 0.00 | 70 | 1012.0 |
| 20260510012934 | 59 | 251 | 0.0 | 0.9 | 0.00 | 0.00 | 0.00 | 71 | 1011.6 |
| 20260510012429 | 59 | 250 | 0.0 | 0.0 | 0.00 | 0.00 | 0.00 | 72 | 1011.7 |
| 20260510011924 | 59 | 250 | 0.0 | 0.0 | 0.00 | 0.00 | 0.00 | 72 | 1011.6 |
| 20260510011419 | 59 | 250 | 0.0 | 0.0 | 0.00 | 0.00 | 0.00 | 70 | 1011.7 |
| 20260510010915 | 60 | 250 | 0.0 | 0.0 | 0.00 | 0.00 | 0.00 | 68 | 1011.5 |
| 20260510010413 | 61 | 250 | 0.0 | 0.0 | 0.00 | 0.00 | 0.00 | 67 | 1011.3 |
| 20260510005909 | 61 | 250 | 0.0 | 0.0 | 0.00 | 0.00 | 0.00 | 65 | 1011.2 |
| 20260510005406 | 62 | 250 | 0.0 | 0.0 | 0.00 | 0.00 | 0.00 | 63 | 1011.2 |
| 20260510004903 | 62 | 250 | 0.0 | 0.9 | 0.00 | 0.00 | 0.00 | 62 | 1011.0 |
| 20260510004401 | 62 | 250 | 0.0 | 0.9 | 0.00 | 0.00 | 0.00 | 62 | 1011.1 |
| 20260510003858 | 63 | 252 | 0.0 | 0.9 | 0.00 | 0.00 | 0.00 | 61 | 1010.8 |
| 20260510003355 | 63 | 253 | 0.0 | 0.9 | 0.00 | 0.00 | 0.00 | 60 | 1010.8 |
| 20260510002854 | 64 | 249 | 0.0 | 0.9 | 0.00 | 0.00 | 0.00 | 60 | 1011.1 |
| 20260510002351 | 64 | 251 | 0.9 | 1.7 | 0.00 | 0.00 | 0.00 | 59 | 1011.1 |
| 20260510001848 | 64 | 248 | 0.0 | 1.7 | 0.00 | 0.00 | 0.00 | 59 | 1011.1 |
| 20260510001346 | 65 | 269 | 0.0 | 1.7 | 0.00 | 0.00 | 0.00 | 58 | 1010.5 |
| 20260510000842 | 65 | 256 | 0.9 | 2.6 | 0.00 | 0.00 | 0.00 | 58 | 1010.8 |
| 20260510000341 | 65 | 230 | 0.0 | 0.9 | 0.00 | 0.00 | 0.00 | 58 | 1010.6 |
| 20260509235836 | 66 | 234 | 0.0 | 0.9 | 0.00 | 0.00 | 0.00 | 58 | 1010.6 |
| 20260509235332 | 66 | 258 | 1.7 | 1.7 | 0.00 | 0.00 | 0.00 | 56 | 1010.8 |
| 20260509234828 | 66 | 258 | 0.9 | 1.7 | 0.00 | 0.00 | 0.00 | 57 | 1010.7 |
| 20260509234325 | 66 | 219 | 0.0 | 0.9 | 0.00 | 0.00 | 0.00 | 56 | 1010.8 |
| 20260509233824 | 67 | 238 | 0.9 | 0.9 | 0.00 | 0.00 | 0.00 | 56 | 1010.6 |
| 20260509233321 | 67 | 232 | 1.7 | 2.6 | 0.00 | 0.00 | 0.00 | 55 | 1010.5 |
| 20260509232816 | 68 | 233 | 0.9 | 0.9 | 0.00 | 0.00 | 0.00 | 55 | 1010.5 |
| 20260509232314 | 68 | 223 | 0.9 | 1.7 | 0.00 | 0.00 | 0.00 | 53 | 1010.5 |
| 20260509231810 | 69 | 220 | 0.9 | 1.7 | 0.00 | 0.00 | 0.00 | 51 | 1010.3 |
| 20260509231307 | 69 | 237 | 1.7 | 1.7 | 0.00 | 0.00 | 0.00 | 50 | 1010.4 |
| 20260509230805 | 68 | 243 | 2.6 | 2.6 | 0.00 | 0.00 | 0.00 | 53 | 1010.4 |
| 20260509230302 | 68 | 268 | 4.3 | 6.1 | 0.00 | 0.00 | 0.00 | 53 | 1010.2 |
| 20260509225757 | 68 | 219 | 0.9 | 1.7 | 0.00 | 0.00 | 0.00 | 53 | 1010.2 |
| 20260509225253 | 68 | 273 | 4.3 | 6.1 | 0.00 | 0.00 | 0.00 | 53 | 1010.5 |
| 20260509224749 | 67 | 208 | 0.9 | 1.7 | 0.00 | 0.00 | 0.00 | 55 | 1010.3 |
| 20260509224247 | 66 | 214 | 0.9 | 3.5 | 0.00 | 0.00 | 0.00 | 56 | 1010.4 |
| 20260509223743 | 66 | 235 | 0.9 | 3.5 | 0.00 | 0.00 | 0.00 | 56 | 1010.1 |
| 20260509223240 | 67 | 279 | 1.7 | 2.6 | 0.00 | 0.00 | 0.00 | 56 | 1010.1 |
| 20260509222737 | 67 | 262 | 0.9 | 2.6 | 0.00 | 0.00 | 0.00 | 56 | 1010.2 |
| 20260509222232 | 67 | 266 | 0.9 | 2.6 | 0.00 | 0.00 | 0.00 | 54 | 1010.2 |
| 20260509221728 | 68 | 234 | 1.7 | 2.6 | 0.00 | 0.00 | 0.00 | 54 | 1010.3 |
| 20260509221224 | 69 | 222 | 2.6 | 2.6 | 0.00 | 0.00 | 0.00 | 51 | 1010.1 |
| 20260509220720 | 69 | 261 | 1.7 | 2.6 | 0.00 | 0.00 | 0.00 | 52 | 1010.1 |
| 20260509220217 | 67 | 267 | 2.6 | 5.2 | 0.00 | 0.00 | 0.00 | 54 | 1010.2 |
| 20260509215713 | 68 | 229 | 1.7 | 2.6 | 0.00 | 0.00 | 0.00 | 53 | 1010.3 |
| 20260509215210 | 68 | 265 | 1.7 | 5.2 | 0.00 | 0.00 | 0.00 | 52 | 1010.1 |
| 20260509214707 | 68 | 267 | 4.3 | 6.1 | 0.00 | 0.00 | 0.00 | 53 | 1010.3 |
| 20260509214204 | 69 | 251 | 0.9 | 2.6 | 0.00 | 0.00 | 0.00 | 51 | 1010.2 |
| 20260509213700 | 70 | 250 | 2.6 | 3.5 | 0.00 | 0.00 | 0.00 | 51 | 1010.2 |
| 20260509213156 | 69 | 256 | 3.5 | 7.8 | 0.00 | 0.00 | 0.00 | 52 | 1010.1 |
| 20260509212654 | 69 | 194 | 3.5 | 8.7 | 0.00 | 0.00 | 0.00 | 51 | 1009.9 |
| 20260509212150 | 68 | 275 | 3.5 | 8.7 | 0.00 | 0.00 | 0.00 | 52 | 1010.2 |
| 20260509211646 | 67 | 209 | 0.9 | 3.5 | 0.00 | 0.00 | 0.00 | 54 | 1010.1 |
| 20260509211143 | 68 | 252 | 3.5 | 7.8 | 0.00 | 0.00 | 0.00 | 52 | 1009.9 |
| 20260509210640 | 69 | 146 | 1.7 | 3.5 | 0.00 | 0.00 | 0.00 | 51 | 1009.8 |
| 20260509210137 | 69 | 180 | 1.7 | 9.6 | 0.00 | 0.00 | 0.00 | 52 | 1009.8 |
| 20260509205632 | 69 | 199 | 1.7 | 8.7 | 0.00 | 0.00 | 0.00 | 51 | 1009.9 |
| 20260509205127 | 70 | 261 | 3.5 | 8.7 | 0.00 | 0.00 | 0.00 | 50 | 1010.1 |
| 20260509204623 | 68 | 266 | 3.5 | 5.2 | 0.00 | 0.00 | 0.00 | 51 | 1009.9 |
| 20260509204120 | 68 | 274 | 3.5 | 5.2 | 0.00 | 0.00 | 0.00 | 52 | 1009.9 |
| 20260509203615 | 68 | 217 | 1.7 | 2.6 | 0.00 | 0.00 | 0.00 | 51 | 1009.8 |
| 20260509203109 | 69 | 242 | 4.3 | 7.8 | 0.00 | 0.00 | 0.00 | 49 | 1010.0 |
| 20260509202608 | 69 | 236 | 5.2 | 9.6 | 0.00 | 0.00 | 0.00 | 49 | 1009.8 |
| 20260509202104 | 69 | 271 | 4.3 | 7.8 | 0.00 | 0.00 | 0.00 | 49 | 1009.9 |
| 20260509201604 | 70 | 226 | 3.5 | 9.6 | 0.00 | 0.00 | 0.00 | 51 | 1009.9 |
| 20260509201103 | 70 | 243 | 2.6 | 6.1 | 0.00 | 0.00 | 0.00 | 49 | 1009.8 |
| 20260509200603 | 69 | 190 | 2.6 | 3.5 | 0.00 | 0.00 | 0.00 | 51 | 1009.7 |
| 20260509200059 | 69 | 258 | 2.6 | 5.2 | 0.00 | 0.00 | 0.00 | 50 | 1009.8 |
| 20260509195554 | 69 | 246 | 4.3 | 7.0 | 0.00 | 0.00 | 0.00 | 51 | 1010.0 |
| 20260509195049 | 69 | 247 | 2.6 | 5.2 | 0.00 | 0.00 | 0.00 | 50 | 1009.8 |
| 20260509194549 | 68 | 213 | 1.7 | 12.2 | 0.00 | 0.00 | 0.00 | 49 | 1009.9 |
| 20260509194047 | 68 | 216 | 2.6 | 3.5 | 0.00 | 0.00 | 0.00 | 49 | 1009.7 |
| 20260509193542 | 68 | 279 | 4.3 | 6.1 | 0.00 | 0.00 | 0.00 | 51 | 1009.8 |
| 20260509193039 | 68 | 230 | 2.6 | 7.0 | 0.00 | 0.00 | 0.00 | 50 | 1009.9 |
| 20260509192536 | 68 | 202 | 2.6 | 6.1 | 0.00 | 0.00 | 0.00 | 52 | 1010.0 |
| 20260509192030 | 68 | 241 | 3.5 | 8.7 | 0.00 | 0.00 | 0.00 | 50 | 1010.0 |
| 20260509191525 | 69 | 215 | 1.7 | 6.1 | 0.00 | 0.00 | 0.00 | 50 | 1009.9 |
| 20260509191021 | 68 | 221 | 1.7 | 9.6 | 0.00 | 0.00 | 0.00 | 52 | 1009.8 |
| 20260509190518 | 67 | 274 | 6.1 | 7.8 | 0.00 | 0.00 | 0.00 | 50 | 1009.8 |
| 20260509190016 | 68 | 209 | 7.0 | 15.6 | 0.00 | 0.00 | 0.00 | 50 | 1010.0 |
| 20260509185513 | 68 | 257 | 3.5 | 14.8 | 0.00 | 0.00 | 0.00 | 50 | 1009.9 |
| 20260509185009 | 67 | 238 | 2.6 | 9.6 | 0.00 | 0.00 | 0.00 | 50 | 1009.7 |